Hourly Data Report for May 27, 2012

THUNDER BAY
ONTARIO

48°22'19.000" N
89°19'18.000" W
199.30 m
6048260
71072
YQT

Download Data

Hourly Data (May 2012)
Hourly Data Report for May 27, 2012
TIME
LST
Temp Definition
°C
Dew Point Definition
°C
Rel Hum Definition
%
Precip. Amount Definition
mm

Wind Dir Definition
10's deg

Wind Spd Definition
km/h
Visibility Definition
km
Stn Press Definition
kPa
Hmdx Definition


Wind Chill Definition


Weather Definition


00:00 10.2 8.3 88   2 5 16.1 99.84     LegendNANA
01:00 9.7 8.9 95   5 9 16.1 99.73     LegendNANA
02:00 9.8 7.8 87   6 15 16.1 99.62     LegendNANA
03:00 9.8 7.6 86   6 17 16.1 99.63     LegendNANA
04:00 9.8 7.3 84   LegendMM LegendMM 16.1 99.69     LegendNANA
05:00 9.1 7.6 90   7 24 12.9 99.55     LegendNANA
06:00 8.9 7.8 93   6 24 16.1 99.54     LegendNANA
07:00 8.5 7.8 95   9 30 4.0 99.45     LegendNANA
08:00 8.2 7.8 97   8 26 4.0 99.47     LegendNANA
09:00 8.4 7.8 96   9 17 16.1 99.35     LegendNANA
10:00 8.7 8.0 95   7 15 16.1 99.33     LegendNANA
11:00 8.9 8.0 94   7 15 16.1 99.22     LegendNANA
12:00 9.6 8.7 94   7 22 16.1 99.16     LegendNANA
13:00 9.8 8.7 93   7 22 16.1 99.13     LegendNANA
14:00 10.9 9.7 92   7 28 16.1 99.02     LegendNANA
15:00 11.7 10.0 89   8 32 16.1 98.84     LegendNANA
16:00 11.0 9.1 88   7 30 16.1 98.82     LegendNANA
17:00 11.0 8.9 87   7 28 16.1 98.91     LegendNANA
18:00 10.2 9.5 95   7 24 4.0 98.85     LegendNANA
19:00 10.1 9.5 96   7 18 6.4 98.81     LegendNANA
20:00 10.6 9.8 95   5 21 16.1 98.86     LegendNANA
21:00 10.6 9.5 93   7 21 16.1 98.81     LegendNANA
22:00 9.6 8.5 93   8 32 16.1 98.66     LegendNANA
23:00 LegendMM LegendMM LegendMM   LegendMM LegendMM 16.1 LegendMM     LegendNANA

Notes on Data Quality.

Legend

  • E = Estimated
  • M = Missing
  • NA = Not Available*
  • [empty] = Indicates an unobserved value
Date modified: